Regional Weather Roundup
Issued by NWS

Home | Current Version | Previous Version | Graphics & Text | Print | Product List | Glossary On
Versions: 1 2 3 4 5 6 7 8 9 10 11 12 13 14 15 16 17 18 19 20 21 22 23 24 25 26 27 28 29 30 31 32 33 34 35 36 37 38 39 40 41 42 43 44 45 46 47 48 49 50
000
ASUS44 KMEG 291010
RWRTN
TENNESSEE HOURLY STATE WEATHER ROUNDUP
NATIONAL WEATHER SERVICE MEMPHIS TN
500 AM CDT WED JUL 29 2015

TNZ002-004-019-021-049-052-054-088>092-291100-
WEST TENNESSEE

CITY           SKY/WX    TMP DP  RH WIND       PRES   REMARKS
MEMPHIS INTL   CLEAR     83  75  77 SW3       29.99R HX  90
NWS MEMPHIS      N/A     77 N/A N/A MISG        N/A
JACKSON        PTCLDY    77  73  87 CALM      29.99R
DYERSBURG        N/A    N/A N/A N/A MISG        N/A
PARIS          CLEAR     72  70  94 CALM      30.00R
LEXINGTON      CLEAR     72  72 100 CALM      30.00R
$$

TNZ008-025-027-028-033-062-065-066-291100-
NORTH MIDDLE TENNESSEE

CITY           SKY/WX    TMP DP  RH WIND       PRES   REMARKS
NASHVILLE      MOCLDY    73  73 100 CALM      30.00R
CLARKSVILLE    CLEAR     72  71  97 CALM      29.99R
SMYRNA         CLEAR     73  72  97 CALM      30.00R
CROSSVILLE     PTCLDY    71  67  87 CALM      30.07R
$$

TNZ061-075-076-078-094-096-097-291100-
SOUTH MIDDLE TENNESSEE

CITY           SKY/WX    TMP DP  RH WIND       PRES   REMARKS
FAYETTEVILLE   CLEAR     73  72  94 N3        30.01R
TULLAHOMA      CLEAR     72  70  94 CALM      30.03R
WINCHESTER     CLOUDY    72  72 100 CALM      30.01S
MCMINNVILLE    CLOUDY    73  73 100 CALM      30.02S
SHELBYVILLE    CLEAR     73  73 100 CALM      30.01R
$$

TNZ017-018-042-046-047-291100-
NORTHEAST TENNESSEE

CITY           SKY/WX    TMP DP  RH WIND       PRES   REMARKS
TRI CITIES     PTCLDY    69  68  96 N3        30.03S FOG
ELIZABETHTON   SUNNY     66  66 100 NE3       30.03S
$$

TNZ012-013-036-069-073-074-291100-
CENTRAL EAST TENNESSEE

CITY           SKY/WX    TMP DP  RH WIND       PRES   REMARKS
KNOXVILLE      PTCLDY    75  72  90 CALM      29.99R
OAK RIDGE      MOCLDY    72  71  97 CALM      30.02R FOG
GATLINBURG     SUNNY     70  70 100 CALM      29.99S
MORRISTOWN     MOSUNNY   73  72  94 CALM      30.03R
$$

TNZ083-085-099-291100-
SOUTHEAST TENNESSEE

CITY           SKY/WX    TMP DP  RH WIND       PRES   REMARKS
CHATTANOOGA    MOCLDY    75  72  90 N3        29.99R
$$

SKY/WX REPORTED AS FAIR MEANS FEW OR NO CLOUDS BELOW
12 THOUSAND FEET.




USA.gov is the U.S. government's official web portal to all federal, state and local government web resources and services.